Location: Ffm
(50.0000°N, 8.5000°E)
Time: 12:34:57
(UTC+01:00)

X-37B - Visible Passes

Search period start: 28 October 2020 00:00
Search period end: 07 November 2020 00:00
Orbit: 382 x 392 km, 45.0° (Epoch: 15 October)

Date Brightness Start Highest point End Pass type
(mag) Time Alt. Az. Time Alt. Az. Time Alt. Az.
02 Nov 3.6 06:02:57 10° S 06:04:19 12° SSE 06:05:41 10° SE visible
03 Nov 2.8 06:39:18 10° SW 06:41:53 23° SSE 06:44:30 10° ESE visible
04 Nov 3.1 05:41:20 10° SSW 05:43:32 17° SSE 05:45:44 10° ESE visible
05 Nov 3.6 04:45:41 12° SE 04:45:41 12° SE 04:46:33 10° SE visible
05 Nov 2.3 06:18:24 10° SW 06:21:11 28° S 06:24:00 10° ESE visible
06 Nov 2.4 05:22:16 22° S 05:22:47 23° SSE 05:25:23 10° ESE visible
